Buscar
  • Menú Principal
  • Est. Meteorològica
  • Mareògraf
  • Previsió
Les dades presentades són DEUMINUTALS

Data últim calibratge: ** PENDENT **

Estat: Darrera lectura: 28/07 17:40 Hora local
Velocitat del vent: 11,6 Km/h Ratxa màxima: 18,9 km/h
V.vent (nusos): 6,3 Nudos Dir. procedència: ESE (110º)
Temp. De l'aire: 26 ºC Hum. rel.: 76,2 %
         
Rosa de vent (últimes 24 h i 7 dies previs a 28/07 17:40 Hora local )
Rosa 24 Horas Rosa 7 Días
Últimes 24 hores Últims 7 dies
Descripció de l'estació:
         
Posició de l'estació
Imagen estacion
TOTES LES DADES ESTAN EN HORA LOCAL
Data
Vel. vent. (Km/h)
Dir. vent (º)
Max. vent. (Km/h):
Temp. aire (º C)
Hum. relativa (%)
2021/07/28 17:4011,611018,92676,2
2021/07/28 17:3013,011019,22676,5
2021/07/28 17:2013,713520,12676,0
2021/07/28 17:1014,012820,72676,0
2021/07/28 17:0014,09920,42675,5
2021/07/28 16:5014,815921,52676,4
2021/07/28 16:4014,910322,82675,3
2021/07/28 16:3013,411820,02674,7
2021/07/28 16:2015,09823,02674,1
2021/07/28 16:1015,69421,52674,2
2021/07/28 16:0015,111722,12673,5
2021/07/28 15:5015,38424,92673,1
2021/07/28 15:4017,49225,82674,6
2021/07/28 15:3019,18926,22673,9
2021/07/28 15:2019,59227,12673,3
2021/07/28 15:1020,910329,52672,9
2021/07/28 15:0022,69333,72671,8
2021/07/28 14:5025,27636,82670,7
2021/07/28 14:4024,39535,52671,1
2021/07/28 14:3024,79135,42671,3
2021/07/28 14:2026,08536,62570,9
2021/07/28 14:1025,09334,72572,3
2021/07/28 14:0027,07336,22571,4
2021/07/28 13:5026,98738,12571,6
Página 1 de 28 (671 Datos)< Prev1234567262728Next >
TOTES LES DADES ESTAN EN HORA LOCAL
Data
Vel. vent. (Km/h)
Dir. vent (º)
Max. vent. (Km/h):
Temp. aire (º C)
Hum. relativa (%)
2021/07/28 17:0013,311019,82676,0
2021/07/28 16:0014,815921,82674,7
2021/07/28 15:0019,18427,92673,3
2021/07/28 14:0025,47635,92671,3
2021/07/28 13:0027,08739,72572,2
2021/07/28 12:0023,59042,92673,6
2021/07/28 11:0019,85440,32675,5
2021/07/28 10:0014,14226,72676,9
2021/07/28 09:0011,08022,92577,6
2021/07/28 08:003,22867,82482,0
2021/07/28 07:005,531211,92285,0
2021/07/28 06:004,12497,82284,6
2021/07/28 05:003,93278,52383,9
2021/07/28 04:001,9215,72481,7
2021/07/28 03:002,9906,12381,3
2021/07/28 02:003,22616,12478,9
2021/07/28 01:004,02417,22478,4
2021/07/28 00:005,718511,12578,2
2021/07/27 23:005,715910,92576,3
2021/07/27 22:005,731310,62574,7
2021/07/27 21:006,316413,32573,7
2021/07/27 20:007,517316,12671,6
2021/07/27 19:0011,114220,32669,6
2021/07/27 18:0011,422221,82767,8
Página 1 de 5 (112 Datos)< Prev12345Next >
TOTES LES DADES ESTAN EN HORA LOCAL
Data
Vel. vent. (Km/h)
Dir. vent (º)
Max. vent. (Km/h):
Temp. aire (º C)
Hum. relativa (%)
2021/07/28 00:0012,011020,82578,1
2021/07/27 00:008,124115,12470,9
2021/07/26 00:008,729717,82468,3
2021/07/25 00:0010,77718,42664,9
2021/07/24 00:009,127216,32678,8
TOTES LES DADES ESTAN EN HORA LOCAL
Les dades presentades són DEUMINUTALS
48 Hores
24 Hores
12 Hores
6 Hores
3 Hores

The Velocitat del vent (km/h) chart showing Velocitat del vent (km/h) series.

The Direcció vent (º) chart showing Direcció vent (º) series.


The Temperatura (º) chart showing Temperatura (º) series.